User: anonymous   Login
Location: Bittkow
(50.3000°N, 19.0000°E)
Time: 14:21:21
(UTC+00:00)
Language:

Nadezhda 3 Rocket - Orbit

View from above orbital plane
View from above orbital plane
View from above satellite
View from above satellite

Ground track
Ground track

The orbit data is extracted from the following two-line orbital elements,

1 21153U 91019B   21173.54833354 -.00000071  00000-0 -88295-4 0  9997
2 21153  82.9247 191.6884 0029542  16.4641  94.1668 13.75989516520046
Epoch (UTC): 22 June 2021 13:09:36
Eccentricity: 0.0029542
inclination: 82.9247°
perigee height: 956 km
apogee height: 1000 km
right ascension of ascending node: 191.6884°
argument of perigee: 16.4641°
revolutions per day: 13.75989516
mean anomaly at epoch: 94.1668°
orbit number at epoch: 52004

The dashed part of the orbit path shows where the satellite is in the earth's shadow,  

DLR